Regional Weather Roundup
Issued by NWS Glasgow, MT

Home | Current Version | Previous Version | Text Only | Print | Product List | Glossary On
Versions: 1 2 3 4 5 6 7 8 9 10 11 12 13 14 15 16 17 18 19 20 21 22 23 24 25 26 27 28 29 30 31 32 33 34 35 36 37 38 39 40 41 42 43 44 45 46 47 48 49 50
000
ASUS45 KGGW 030515
RWRGGW
HOURLY REGIONAL WEATHER ROUNDUP FOR NORTHEAST MONTANA
NATIONAL WEATHER SERVICE GLASGOW MONTANA
1100 PM MDT WED SEP 02 2015

NOTE: "FAIR" INDICATES FEW OR NO CLOUDS BELOW 12,000 FEET WITH NO
SIGNIFICANT WEATHER AND/OR OBSTRUCTIONS TO VISISBILITY.

NORTHEAST MONTANA


CITY           SKY/WX    TMP DP  RH WIND       PRES   REMARKS
GLASGOW        PTCLDY    70  40  33 N14       29.66R
PLENTYWOOD       N/A     74  38  27 E10         N/A
WOLF POINT     CLOUDY    73  46  38 E8        29.60S
JORDAN           N/A     79  41  25 N18G26    29.66R
WINNETT          N/A     72  37  28 W13G22      N/A
SIDNEY         CLOUDY    72  46  40 CALM        N/A
GLENDIVE       PTCLDY    77  45  31 S7        29.66F
MALTA            N/A     71  38  29 SW5G14      N/A
OPHEIM           N/A     68  41  37 N7        29.44R

FORT PECK REPORTS


CITY           SKY/WX    TMP DP  RH WIND       PRES   REMARKS
THE PINES        N/A     74  37  26 NW8G17      N/A

SOUTHEAST MONTANA


CITY           SKY/WX    TMP DP  RH WIND       PRES   REMARKS
BILLINGS       PTCLDY    76  29  17 N12       29.76R
MILES CITY     PTCLDY    82  41  23 SE8       29.63F
BAKER          CLEAR     69  49  48 SE8       29.72S
LIVINGSTON     CLEAR     72  26  18 S12       29.80S

CENTRAL MONTANA


CITY           SKY/WX    TMP DP  RH WIND       PRES   REMARKS
HAVRE          CLOUDY    69  37  30 NW9       29.80R
LEWISTOWN      CLEAR     64  37  36 NW8       29.86R
GREAT FALLS    LGT RAIN  62  39  42 E5        29.87R
CUT BANK       CLOUDY    55  37  50 E3        29.89S
HELENA         CLOUDY    67  39  35 SW3       29.85F
BUTTE          MOCLDY    57  37  47 E3        29.92S
BOZEMAN        PTCLDY    62  32  32 N9        29.81R

WESTERN MONTANA


CITY           SKY/WX    TMP DP  RH WIND       PRES   REMARKS
MISSOULA       CLOUDY    59  41  51 NW14      29.91S
KALISPELL      NOT AVBL

NORTH DAKOTA


CITY           SKY/WX    TMP DP  RH WIND       PRES   REMARKS
WILLISTON      PTCLDY    81  52  36 S6        29.64S
DICKINSON      MOCLDY    73  55  53 SE10      29.71F
MINOT          MOCLDY    69  61  75 SE6       29.70S
BISMARCK       PTCLDY    72  69  90 E7        29.74S

SOUTHERN SASKATCHEWAN


CITY           SKY/WX    TMP DP  RH WIND       PRES   REMARKS
REGINA         MOCLDY    68  52  56 NW7       29.67R
ESTEVAN        CLOUDY    73  61  64 SE10      29.64F
SWIFT CURRENT  PTCLDY    63  39  42 W9        29.77S



USA.gov is the U.S. government's official web portal to all federal, state and local government web resources and services.